This demonstration page uses our WeatherBlox Daily Observations layout. Learn more.

Left ArrowRight Arrow

34.74481, -87.66753

Hourly Observations for April 24, 2021

Temp ( °F °C ) Dew Point ( °F °C ) Humidity (%) Winds ( mph kmh ) Pressure ( in mb ) Visibility ( mi km ) Precip ( " mm )
12:53 am 00:53 Cloudy 60 15.6 45 7.2 58 58 SE 5 7 29.91 1013 10 16 0.00 0.00
1:53 am 01:53 Cloudy with Light Rain 57 13.9 48 8.9 72 72 SE 3 6 29.89 1012 10 16 0.03 0.76
2:53 am 02:53 Cloudy with Light Rain 56 13.3 48 8.9 75 75 SE 6 9 29.85 1011 8 13 0.05 1.27
3:53 am 03:53 Cloudy with Light Rain 55 12.8 50 10 83 83 ESE 10 17 29.80 1009 7 11 0.11 2.79
4:53 am 04:53 Cloudy with Light Rain 56 13.3 51 10.6 84 84 ESE 7 11 29.76 1008 7 11 0.06 1.52
5:01 am 05:01 Cloudy with Light Rain 56 13.3 51 10.6 84 84 E 7 11 29.77 1008 7 11 0.01 0.25
5:14 am 05:14 Cloudy with Light Rain 56 13.3 51 10.6 84 84 SE 7 11 29.80 1009 6 10 0.03 0.76
5:42 am 05:42 Cloudy with Rain 56 13.3 51 10.6 84 84 E 5 7 29.79 1009 5 8 0.12 3.05
5:53 am 05:53 Cloudy with Rain 56 13.3 52 11.1 87 87 Calm 29.79 1009 5 8 0.14 3.56
6:53 am 06:53 Cloudy with Light Rain 56 13.3 52 11.1 87 87 E 9 15 29.68 1005 6 10 0.08 2.03
7:44 am 07:44 Cloudy 57 13.9 52 11.1 83 83 SE 13 20 29.73 1007 10 16 0.00 0.00
7:53 am 07:53 Cloudy 57 13.9 52 11.1 83 83 SE 13 20 29.72 1007 10 16 0.00 0.00
8:53 am 08:53 Cloudy 59 15 53 11.7 81 81 SSE 14 22 29.67 1005 10 16 0.00 0.00
9:41 am 09:41 Partly Cloudy 64 17.8 55 12.8 73 73 SSE 13 20 29.67 1005 10 16 0.00 0.00
9:53 am 09:53 Partly Cloudy 65 18.3 56 13.3 73 73 S 13 20 29.67 1005 10 16 0.00 0.00
10:01 am 10:01 Mostly Cloudy 65 18.3 55 12.8 70 70 SSE 9 15 29.67 1005 10 16 0.00 0.00
10:53 am 10:53 Cloudy 66 18.9 55 12.8 68 68 S 14 22 29.68 1005 10 16 0.00 0.00
11:53 am 11:53 Mostly Cloudy 70 21.1 57 13.9 64 64 SSW 5 7 29.66 1005 10 16 0.00 0.00
12:08 pm 12:08 Partly Cloudy 71 21.7 58 14.4 63 63 SSW 10 17 29.65 1004 10 16 0.00 0.00
12:53 pm 12:53 Mostly Cloudy 73 22.8 58 14.4 59 59 S 13 20 29.64 1004 10 16 0.00 0.00
1:53 pm 13:53 Mostly Cloudy 78 25.6 58 14.4 50 50 WSW 16 26 29.62 1003 10 16 0.00 0.00
2:53 pm 14:53 Partly Cloudy 77 25 56 13.3 48 48 W 18 30 29.61 1003 10 16 0.00 0.00
3:37 pm 15:37 Mostly Cloudy with Nearby Thunderstorms 71 21.7 56 13.3 59 59 W 15 24 29.61 1003 10 16 0.00 0.00
3:53 pm 15:53 Cloudy with Nearby Thunderstorms 70 21.1 59 15 68 68 WSW 10 17 29.61 1003 10 16 0.00 0.00
4:08 pm 16:08 Mostly Cloudy 69 20.6 58 14.4 68 68 WSW 10 17 29.62 1003 10 16 0.00 0.00
4:43 pm 16:43 Cloudy with Heavy Rain 67 19.4 60 15.6 79 79 WNW 10 17 29.63 1003 2 3 0.11 2.79
4:48 pm 16:48 Mostly Cloudy with Light Rain 68 20 61 16 78 78 W 15 24 29.63 1003 4 6 0.11 2.79
4:53 pm 16:53 Mostly Cloudy 69 20.6 61 16.1 76 76 WNW 14 22 29.63 1003 10 16 0.11 2.79
5:53 pm 17:53 Cloudy 68 20 56 13.3 65 65 WNW 22 35 29.65 1004 10 16 0.00 0.00
6:39 pm 18:39 Cloudy 64 17.8 54 12.2 70 70 NW 22 35 29.70 1006 10 16 0.00 0.00
6:53 pm 18:53 Cloudy 63 17.2 53 11.7 70 70 WNW 18 30 29.70 1006 10 16 0.00 0.00
7:21 pm 19:21 Cloudy 62 16.7 50 10 65 65 NW 16 26 29.72 1007 10 16 0.00 0.00
7:53 pm 19:53 Mostly Cloudy 61 16.1 51 10.6 70 70 NW 12 19 29.75 1008 10 16 0.00 0.00
8:31 pm 20:31 Cloudy 60 15.6 49 9.4 67 67 NW 13 20 29.80 1009 10 16 0.00 0.00
8:46 pm 20:46 Cloudy 60 15.6 49 9.4 67 67 NW 15 24 29.80 1009 10 16 0.00 0.00
8:53 pm 20:53 Cloudy 60 15.6 49 9.4 67 67 NW 12 19 29.80 1009 10 16 0.00 0.00
9:53 pm 21:53 Cloudy 59 15 48 8.9 67 67 NNW 10 17 29.85 1011 10 16 0.00 0.00
10:53 pm 22:53 Cloudy 59 15 49 9.4 69 69 NW 7 11 29.87 1012 10 16 0.00 0.00
11:02 pm 23:02 Cloudy 59 15 49 9.4 69 69 NNW 9 15 29.89 1012 10 16 0.00 0.00
11:17 pm 23:17 Cloudy 59 15 49 9.4 69 69 NNW 9 15 29.90 1012 10 16 0.00 0.00
11:30 pm 23:30 Cloudy 58 14.4 49 9.4 72 72 NW 8 13 29.91 1013 10 16 0.00 0.00
11:53 pm 23:53 Cloudy 58 14.4 49 9.4 72 72 NNW 6 9 29.91 1013 10 16 0.00 0.00

Powered by AerisWeather